Location: Alafon
(8.4500°N, 4.2333°E)
Time: 01:25:52
(UTC+00:00)

NOSS 3-3 (A) - Pass Details

Date: 05 July 2020
Orbit: 825 x 1387 km, 63.4° (Epoch: 03 August)

Event Time Altitude Azimuth Distance (km) Brightness Sun altitude
Rises 20:15:30 0° 212° (SSW) 3,373 6.8 -29.4°
Reaches altitude 10° 20:17:59 10° 217° (SW) 2,422 6.1 -30.0°
Maximum altitude 20:23:22 56° 294° (WNW) 979 4.2 -31.1°
Drops below altitude 10° 20:28:55 10° 12° (NNE) 2,498 6.3 -32.2°
Sets 20:31:32 0° 17° (NNE) 3,489 7.1 -32.8°
